�������l�o���
Date,Time,MP-1(��Sv/h),MP-2(��Sv/h),MP-3(��Sv/h),MP-4(��Sv/h),MP-5(��Sv/h),MP-6(��Sv/h),MP-7(��Sv/h),MP-8(��Sv/h),����,����(m/s),���J
2022/09/15,00:00,0.593,0.855,0.538,1.041,0.747,0.341,0.596,0.563,�k,1.7,�L
2022/09/15,00:10,0.593,0.854,0.538,1.042,0.748,0.341,0.596,0.562,�k��,1.7,�L
2022/09/15,00:20,0.593,0.853,0.537,1.041,0.748,0.341,0.595,0.561,�k��,1.4,�L
2022/09/15,00:30,0.594,0.854,0.536,1.043,0.748,0.340,0.597,0.561,�k��,1.7,�L
2022/09/15,00:40,0.594,0.851,0.537,1.044,0.747,0.342,0.596,0.561,���k��,1.9,�L
2022/09/15,00:50,0.593,0.852,0.539,1.043,0.747,0.341,0.596,0.560,�k��,2.2,�L
2022/09/15,01:00,0.594,0.853,0.538,1.043,0.748,0.341,0.598,0.561,�k��,2.3,�L
2022/09/15,01:10,0.593,0.853,0.537,1.041,0.747,0.343,0.597,0.561,�k��,1.9,�L
2022/09/15,01:20,0.592,0.855,0.538,1.041,0.749,0.342,0.596,0.561,�k�k��,1.7,��
2022/09/15,01:30,0.593,0.852,0.537,1.043,0.750,0.342,0.599,0.561,�k,1.4,��
2022/09/15,01:40,0.593,0.854,0.536,1.040,0.749,0.341,0.597,0.563,�k�k��,2.2,��
2022/09/15,01:50,0.593,0.852,0.537,1.040,0.747,0.343,0.599,0.562,�k�k��,2.0,��
2022/09/15,02:00,0.594,0.854,0.538,1.040,0.747,0.342,0.597,0.561,�k�k��,1.5,��
2022/09/15,02:10,0.593,0.852,0.538,1.044,0.747,0.341,0.599,0.561,�k�k��,1.4,��
2022/09/15,02:20,0.593,0.854,0.537,1.042,0.749,0.342,0.596,0.562,�k�k��,1.7,��
2022/09/15,02:30,0.595,0.852,0.538,1.040,0.749,0.341,0.597,0.562,�k�k��,1.9,��
2022/09/15,02:40,0.594,0.853,0.537,1.041,0.750,0.342,0.596,0.560,�k,1.5,��
2022/09/15,02:50,0.594,0.853,0.536,1.040,0.747,0.342,0.597,0.561,�k,2.0,��
2022/09/15,03:00,0.595,0.852,0.537,1.041,0.749,0.342,0.597,0.562,�k,2.0,��
2022/09/15,03:10,0.594,0.852,0.536,1.040,0.748,0.342,0.598,0.561,�k,2.0,��
2022/09/15,03:20,0.593,0.853,0.536,1.041,0.748,0.342,0.597,0.562,�k�k��,2.5,��
2022/09/15,03:30,0.592,0.852,0.537,1.042,0.749,0.341,0.597,0.561,�k�k��,2.0,��
2022/09/15,03:40,0.593,0.851,0.537,1.042,0.745,0.341,0.598,0.561,�k��,2.2,��
2022/09/15,03:50,0.593,0.853,0.537,1.040,0.748,0.340,0.597,0.562,�k,1.9,��
2022/09/15,04:00,0.593,0.852,0.536,1.042,0.748,0.342,0.600,0.563,�k,2.2,��
2022/09/15,04:10,0.593,0.853,0.535,1.042,0.746,0.342,0.599,0.561,�k�k��,2.2,��
2022/09/15,04:20,0.595,0.852,0.537,1.042,0.748,0.341,0.599,0.561,�k,1.7,��
2022/09/15,04:30,0.594,0.854,0.538,1.041,0.748,0.341,0.598,0.561,�k�k��,1.7,��
2022/09/15,04:40,0.595,0.852,0.536,1.042,0.747,0.341,0.599,0.562,�k�k��,1.9,��
2022/09/15,04:50,0.593,0.851,0.537,1.041,0.747,0.341,0.599,0.563,�k,1.9,��
2022/09/15,05:00,0.593,0.852,0.537,1.044,0.747,0.342,0.600,0.562,�k�k��,1.7,��
2022/09/15,05:10,0.594,0.851,0.538,1.042,0.747,0.341,0.600,0.561,�k�k��,1.5,��
2022/09/15,05:20,0.592,0.852,0.536,1.042,0.747,0.341,0.598,0.561,�k��,1.7,��
2022/09/15,05:30,0.594,0.851,0.537,1.042,0.748,0.341,0.599,0.561,�k��,1.2,��
2022/09/15,05:40,0.594,0.853,0.537,1.042,0.746,0.342,0.597,0.562,�k�k��,1.9,��
2022/09/15,05:50,0.593,0.853,0.535,1.043,0.747,0.341,0.598,0.563,�k,1.5,��
2022/09/15,06:00,0.593,0.852,0.536,1.041,0.745,0.340,0.598,0.562,�k�k��,1.7,��
2022/09/15,06:10,0.593,0.854,0.535,1.041,0.747,0.340,0.598,0.563,�k�k��,1.9,��
2022/09/15,06:20,0.593,0.854,0.538,1.041,0.747,0.342,0.599,0.562,�k�k��,1.5,��
2022/09/15,06:30,0.592,0.851,0.538,1.043,0.747,0.340,0.599,0.562,�k,1.5,��
2022/09/15,06:40,0.594,0.854,0.536,1.041,0.747,0.340,0.599,0.562,�k,1.7,��
2022/09/15,06:50,0.593,0.852,0.537,1.043,0.749,0.341,0.598,0.561,�k,1.2,��
2022/09/15,07:00,0.594,0.852,0.538,1.042,0.748,0.341,0.597,0.562,�k�k��,0.9,��
2022/09/15,07:10,0.595,0.854,0.537,1.042,0.748,0.341,0.598,0.563,�k�k��,0.9,��
2022/09/15,07:20,0.596,0.854,0.536,1.041,0.748,0.340,0.599,0.562,�k��,0.6,��
2022/09/15,07:30,0.592,0.853,0.537,1.042,0.746,0.341,0.598,0.561,�k��,1.2,��
2022/09/15,07:40,0.591,0.851,0.537,1.043,0.747,0.340,0.598,0.560,�k�k��,1.1,��
2022/09/15,07:50,0.593,0.849,0.537,1.039,0.748,0.340,0.597,0.561,��쐼,0.6,��
2022/09/15,08:00,0.593,0.851,0.537,1.043,0.748,0.339,0.597,0.562,�k�k��,1.1,��
2022/09/15,08:10,0.591,0.852,0.538,1.042,0.746,0.340,0.599,0.561,�k�k��,1.2,��
2022/09/15,08:20,0.592,0.850,0.536,1.043,0.748,0.340,0.599,0.561,�쓌,0.9,��
2022/09/15,08:30,0.591,0.847,0.537,1.043,0.747,0.341,0.598,0.560,���쓌,1.7,��
2022/09/15,08:40,0.593,0.848,0.538,1.040,0.747,0.340,0.598,0.560,��쓌,1.4,��
2022/09/15,08:50,0.593,0.847,0.536,1.041,0.745,0.340,0.598,0.560,��쓌,1.4,��
2022/09/15,09:00,0.592,0.848,0.535,1.042,0.746,0.341,0.598,0.560,�쓌,2.2,��
2022/09/15,09:10,0.592,0.847,0.537,1.042,0.744,0.339,0.600,0.560,���쓌,1.7,��
2022/09/15,09:20,0.590,0.849,0.534,1.043,0.746,0.339,0.599,0.559,�쓌,2.0,��
2022/09/15,09:30,0.591,0.848,0.535,1.040,0.744,0.340,0.598,0.558,�쓌,2.6,��
2022/09/15,09:40,0.593,0.849,0.536,1.042,0.745,0.341,0.598,0.559,�쓌,2.0,��
2022/09/15,09:50,0.592,0.848,0.537,1.042,0.744,0.339,0.598,0.560,�쓌,2.8,��
2022/09/15,10:00,0.592,0.850,0.538,1.044,0.746,0.340,0.599,0.558,��쓌,2.3,��
2022/09/15,10:10,0.592,0.849,0.535,1.042,0.745,0.340,0.600,0.560,���쓌,2.3,��
2022/09/15,10:20,0.593,0.852,0.537,1.041,0.746,0.341,0.598,0.559,�쓌,2.3,��
2022/09/15,10:30,0.593,0.849,0.538,1.040,0.748,0.340,0.598,0.561,��쓌,2.3,��
2022/09/15,10:40,0.594,0.852,0.538,1.042,0.747,0.339,0.598,0.559,��쓌,2.8,��
2022/09/15,10:50,0.594,0.850,0.535,1.044,0.748,0.340,0.599,0.560,�쓌,2.6,��
2022/09/15,11:00,0.594,0.843,0.537,1.044,0.750,0.340,0.597,0.559,�쓌,3.0,��
2022/09/15,11:10,0.595,0.853,0.537,1.042,0.750,0.342,0.600,0.560,��쓌,3.3,��
2022/09/15,11:20,0.595,0.854,0.538,1.042,0.749,0.340,0.601,0.561,��쓌,3.4,��
2022/09/15,11:30,0.595,0.853,0.537,1.041,0.749,0.341,0.599,0.560,�쓌,3.6,��
2022/09/15,11:40,0.595,0.855,0.537,1.041,0.748,0.340,0.598,0.562,�쓌,4.0,��
2022/09/15,11:50,0.594,0.855,0.539,1.042,0.751,0.340,0.600,0.558,��쓌,4.9,��
2022/09/15,12:00,0.594,0.854,0.537,1.041,0.750,0.341,0.601,0.560,�쓌,3.8,��
2022/09/15,12:10,0.593,0.857,0.540,1.043,0.751,0.341,0.598,0.559,�쓌,3.8,��
2022/09/15,12:20,0.594,0.856,0.538,1.043,0.749,0.341,0.600,0.561,�쓌,3.9,��
2022/09/15,12:30,0.594,0.857,0.539,1.040,0.750,0.341,0.598,0.561,�쓌,3.6,��
2022/09/15,12:40,0.595,0.855,0.537,1.043,0.749,0.340,0.599,0.560,�쓌,3.1,��
2022/09/15,12:50,0.595,0.857,0.539,1.041,0.751,0.340,0.598,0.561,�쓌,3.6,��
2022/09/15,13:00,0.596,0.857,0.539,1.043,0.750,0.342,0.599,0.561,�쓌,3.2,��
2022/09/15,13:10,0.594,0.854,0.538,1.045,0.748,0.341,0.599,0.561,�쓌,3.2,��
2022/09/15,13:20,0.597,0.855,0.538,1.043,0.750,0.341,0.598,0.560,�쓌,3.4,��
2022/09/15,13:30,0.595,0.854,0.537,1.042,0.750,0.341,0.598,0.560,��쓌,3.3,��
2022/09/15,13:40,0.595,0.855,0.540,1.042,0.751,0.341,0.599,0.559,�쓌,2.9,��
2022/09/15,13:50,0.597,0.856,0.536,1.042,0.750,0.341,0.600,0.560,�쓌,3.0,��
2022/09/15,14:00,0.600,0.856,0.539,1.043,0.750,0.341,0.600,0.562,�쓌,3.3,��
2022/09/15,14:10,0.601,0.854,0.539,1.043,0.750,0.341,0.599,0.560,���쓌,2.9,��
2022/09/15,14:20,0.596,0.855,0.538,1.042,0.751,0.341,0.599,0.561,�쓌,3.0,��
2022/09/15,14:30,0.597,0.857,0.537,1.042,0.751,0.342,0.600,0.561,�쓌,3.4,��
2022/09/15,14:40,0.599,0.856,0.537,1.043,0.752,0.341,0.599,0.560,�쓌,3.6,��
2022/09/15,14:50,0.600,0.855,0.538,1.045,0.748,0.341,0.598,0.561,�쓌,3.4,��
2022/09/15,15:00,0.600,0.855,0.539,1.044,0.752,0.341,0.599,0.562,��쓌,3.1,��
2022/09/15,15:10,0.601,0.856,0.541,1.045,0.749,0.341,0.598,0.561,�쓌,3.3,��
2022/09/15,15:20,0.597,0.854,0.540,1.046,0.751,0.340,0.598,0.558,�쓌,3.6,��
2022/09/15,15:30,0.594,0.856,0.540,1.042,0.752,0.341,0.599,0.561,��쓌,2.3,��
2022/09/15,15:40,0.592,0.856,0.538,1.046,0.750,0.341,0.599,0.559,��쓌,2.6,��
2022/09/15,15:50,0.595,0.855,0.539,1.046,0.750,0.342,0.600,0.559,��쓌,3.0,��
2022/09/15,16:00,0.592,0.858,0.540,1.045,0.750,0.341,0.599,0.559,��쓌,3.5,��
2022/09/15,16:10,0.592,0.855,0.540,1.046,0.750,0.341,0.599,0.559,�쓌,3.3,��
2022/09/15,16:20,0.593,0.857,0.538,1.048,0.751,0.341,0.598,0.560,��쓌,3.5,��
2022/09/15,16:30,0.593,0.857,0.540,1.048,0.751,0.341,0.598,0.561,��쓌,3.6,��
2022/09/15,16:40,0.594,0.856,0.539,1.047,0.753,0.340,0.597,0.560,��쓌,3.2,��
2022/09/15,16:50,0.593,0.858,0.540,1.047,0.750,0.340,0.596,0.562,��쓌,2.8,��
2022/09/15,17:00,0.596,0.858,0.541,1.048,0.751,0.341,0.598,0.562,��쓌,3.1,��
2022/09/15,17:10,0.593,0.859,0.541,1.048,0.751,0.341,0.598,0.560,��쓌,3.3,��
2022/09/15,17:20,0.595,0.858,0.542,1.049,0.752,0.341,0.600,0.562,��쓌,3.5,��
2022/09/15,17:30,0.595,0.857,0.541,1.049,0.751,0.341,0.598,0.561,��,3.3,��
2022/09/15,17:40,0.597,0.857,0.541,1.048,0.751,0.341,0.597,0.562,��,4.0,��
2022/09/15,17:50,0.597,0.857,0.541,1.048,0.752,0.340,0.599,0.564,��쓌,3.7,��
2022/09/15,18:00,0.597,0.859,0.540,1.047,0.752,0.341,0.599,0.563,��쓌,3.4,��
2022/09/15,18:10,0.597,0.859,0.542,1.048,0.751,0.341,0.599,0.564,��쓌,3.2,��
2022/09/15,18:20,0.597,0.860,0.541,1.048,0.751,0.341,0.599,0.564,��쓌,2.6,��
2022/09/15,18:30,0.596,0.859,0.541,1.048,0.751,0.342,0.599,0.563,��,2.8,��
2022/09/15,18:40,0.596,0.861,0.540,1.048,0.753,0.342,0.599,0.564,��,3.3,��
2022/09/15,18:50,0.595,0.862,0.541,1.047,0.752,0.342,0.597,0.562,��,3.3,��
2022/09/15,19:00,0.597,0.861,0.542,1.050,0.753,0.341,0.600,0.564,��,3.5,��
2022/09/15,19:10,0.597,0.861,0.541,1.047,0.754,0.342,0.599,0.563,��,3.5,��
2022/09/15,19:20,0.597,0.862,0.542,1.049,0.754,0.342,0.599,0.562,��,3.8,��
2022/09/15,19:30,0.596,0.863,0.541,1.048,0.754,0.342,0.600,0.563,��,3.8,��
2022/09/15,19:40,0.597,0.862,0.541,1.049,0.754,0.343,0.599,0.563,��,4.1,��
2022/09/15,19:50,0.597,0.860,0.541,1.045,0.753,0.342,0.599,0.562,��쐼,4.0,��
2022/09/15,20:00,0.597,0.863,0.542,1.049,0.752,0.342,0.601,0.563,��쐼,3.6,��
2022/09/15,20:10,0.595,0.862,0.543,1.048,0.754,0.340,0.599,0.563,��쐼,3.8,��
2022/09/15,20:20,0.595,0.862,0.542,1.049,0.751,0.342,0.600,0.563,��쐼,3.6,��
2022/09/15,20:30,0.593,0.860,0.542,1.050,0.754,0.342,0.600,0.564,��쐼,4.0,��
2022/09/15,20:40,0.596,0.862,0.542,1.046,0.754,0.343,0.601,0.565,��쐼,3.2,��
2022/09/15,20:50,0.596,0.863,0.542,1.047,0.755,0.342,0.599,0.563,��쐼,3.6,��
2022/09/15,21:00,0.595,0.864,0.542,1.050,0.755,0.343,0.601,0.563,��쐼,3.3,��
2022/09/15,21:10,0.596,0.862,0.541,1.051,0.753,0.343,0.601,0.563,�쐼,3.1,��
2022/09/15,21:20,0.595,0.863,0.544,1.051,0.754,0.343,0.599,0.563,��쐼,2.6,��
2022/09/15,21:30,0.597,0.863,0.543,1.048,0.754,0.343,0.600,0.563,��쐼,3.2,��
2022/09/15,21:40,0.596,0.861,0.540,1.049,0.755,0.343,0.600,0.564,��쐼,3.4,��
2022/09/15,21:50,0.597,0.864,0.541,1.049,0.755,0.343,0.601,0.562,��쐼,3.3,��
2022/09/15,22:00,0.596,0.863,0.542,1.047,0.754,0.342,0.600,0.563,��쐼,2.9,��
2022/09/15,22:10,0.596,0.864,0.543,1.048,0.753,0.342,0.599,0.564,�쐼,2.8,��
2022/09/15,22:20,0.595,0.864,0.541,1.048,0.754,0.342,0.600,0.562,��쐼,2.6,��
2022/09/15,22:30,0.597,0.862,0.543,1.049,0.754,0.342,0.600,0.562,�쐼,2.6,��
2022/09/15,22:40,0.598,0.862,0.543,1.049,0.753,0.342,0.599,0.562,��쐼,2.9,��
2022/09/15,22:50,0.596,0.863,0.542,1.047,0.752,0.343,0.601,0.563,��쐼,3.0,��
2022/09/15,23:00,0.597,0.861,0.544,1.048,0.755,0.343,0.600,0.563,��쐼,3.2,��
2022/09/15,23:10,0.596,0.864,0.541,1.050,0.753,0.343,0.600,0.563,��쐼,3.3,��
2022/09/15,23:20,0.596,0.862,0.542,1.050,0.754,0.342,0.600,0.563,��쐼,3.6,��
2022/09/15,23:30,0.595,0.862,0.545,1.049,0.753,0.342,0.599,0.564,��쐼,3.4,��
2022/09/15,23:40,0.595,0.861,0.542,1.048,0.753,0.343,0.602,0.564,��쐼,3.5,��
2022/09/15,23:50,0.597,0.863,0.541,1.049,0.753,0.342,0.599,0.562,��쐼,3.1,��
